Year,Month,Day,Hour,Minute,Value (Times are PST for temperature in C)
2009,09,10,00,00,13.70
2009,09,10,00,01,13.70
2009,09,10,00,02,13.70
2009,09,10,00,03,13.70
2009,09,10,00,04,13.70
2009,09,10,00,05,13.70
2009,09,10,00,06,13.70
2009,09,10,00,07,13.60
2009,09,10,00,08,13.60
2009,09,10,00,09,13.60
2009,09,10,00,10,13.50
2009,09,10,00,11,13.50
2009,09,10,00,12,13.50
2009,09,10,00,13,13.40
2009,09,10,00,14,13.40
2009,09,10,00,15,13.30
2009,09,10,00,16,13.30
2009,09,10,00,17,13.30
2009,09,10,00,18,13.20
2009,09,10,00,19,13.20
2009,09,10,00,20,13.20
2009,09,10,00,21,13.10
2009,09,10,00,22,13.10
2009,09,10,00,23,13.10
2009,09,10,00,24,13.10
2009,09,10,00,25,13.10
2009,09,10,00,26,13.10
2009,09,10,00,27,13.00
2009,09,10,00,28,13.00
2009,09,10,00,29,13.00
2009,09,10,00,30,12.90
2009,09,10,00,31,12.90
2009,09,10,00,32,12.80
2009,09,10,00,33,12.80
2009,09,10,00,34,12.80
2009,09,10,00,35,12.70
2009,09,10,00,36,12.70
2009,09,10,00,37,12.60
2009,09,10,00,38,12.60
2009,09,10,00,39,12.50
2009,09,10,00,40,12.50
2009,09,10,00,41,12.40
2009,09,10,00,42,12.40
2009,09,10,00,43,12.30
2009,09,10,00,44,12.30
2009,09,10,00,45,12.30
2009,09,10,00,46,12.20
2009,09,10,00,47,12.20
2009,09,10,00,48,12.20
2009,09,10,00,49,12.10
2009,09,10,00,50,12.10
2009,09,10,00,51,12.10
2009,09,10,00,52,12.00
2009,09,10,00,53,12.00
2009,09,10,00,54,11.90
2009,09,10,00,55,11.90
2009,09,10,00,56,11.90
2009,09,10,00,57,11.80
2009,09,10,00,58,11.80
2009,09,10,00,59,11.80
2009,09,10,01,00,11.70
2009,09,10,01,01,11.70
2009,09,10,01,02,11.60
2009,09,10,01,03,11.60
2009,09,10,01,04,11.60
2009,09,10,01,05,11.60
2009,09,10,01,06,11.50
2009,09,10,01,07,11.50
2009,09,10,01,08,11.40
2009,09,10,01,09,11.40
2009,09,10,01,10,11.40
2009,09,10,01,11,11.40
2009,09,10,01,12,11.40
2009,09,10,01,13,11.30
2009,09,10,01,14,11.30
2009,09,10,01,15,11.40
2009,09,10,01,16,11.50
2009,09,10,01,17,11.50
2009,09,10,01,18,11.60
2009,09,10,01,19,11.60
2009,09,10,01,20,11.60
2009,09,10,01,21,11.60
2009,09,10,01,22,11.60
2009,09,10,01,23,11.60
2009,09,10,01,24,11.60
2009,09,10,01,25,11.60
2009,09,10,01,26,11.60
2009,09,10,01,27,11.60
2009,09,10,01,28,11.50
2009,09,10,01,29,11.50
2009,09,10,01,30,11.50
2009,09,10,01,31,11.50
2009,09,10,01,32,11.50
2009,09,10,01,33,11.40
2009,09,10,01,34,11.40
2009,09,10,01,35,11.40
2009,09,10,01,36,11.40
2009,09,10,01,37,11.30
2009,09,10,01,38,11.30
2009,09,10,01,39,11.30
2009,09,10,01,40,11.30
2009,09,10,01,41,11.30
2009,09,10,01,42,11.30
2009,09,10,01,43,11.30
2009,09,10,01,44,11.30
2009,09,10,01,45,11.30
2009,09,10,01,46,11.30
2009,09,10,01,47,11.20
2009,09,10,01,48,11.20
2009,09,10,01,49,11.20
2009,09,10,01,50,11.10
2009,09,10,01,51,11.10
2009,09,10,01,52,11.10
2009,09,10,01,53,11.10
2009,09,10,01,54,11.10
2009,09,10,01,55,11.00
2009,09,10,01,56,11.00
2009,09,10,01,57,11.00
2009,09,10,01,58,11.00
2009,09,10,01,59,10.90
2009,09,10,02,00,10.90
2009,09,10,02,01,10.90
2009,09,10,02,02,10.80
2009,09,10,02,03,10.80
2009,09,10,02,04,10.80
2009,09,10,02,05,10.80
2009,09,10,02,06,10.80
2009,09,10,02,07,10.80
2009,09,10,02,08,10.80
2009,09,10,02,09,10.80
2009,09,10,02,10,10.80
2009,09,10,02,11,10.80
2009,09,10,02,12,10.80
2009,09,10,02,13,10.70
2009,09,10,02,14,10.70
2009,09,10,02,15,10.70
2009,09,10,02,16,10.70
2009,09,10,02,17,10.70
2009,09,10,02,18,10.70
2009,09,10,02,19,10.70
2009,09,10,02,20,10.60
2009,09,10,02,21,10.60
2009,09,10,02,22,10.60
2009,09,10,02,23,10.60
2009,09,10,02,24,10.60
2009,09,10,02,25,10.70
2009,09,10,02,26,10.70
2009,09,10,02,27,10.70
2009,09,10,02,28,10.70
2009,09,10,02,29,10.70
2009,09,10,02,30,10.70
2009,09,10,02,31,10.80
2009,09,10,02,32,10.80
2009,09,10,02,33,10.80
2009,09,10,02,34,10.80
2009,09,10,02,35,10.80
2009,09,10,02,36,10.70
2009,09,10,02,37,10.80
2009,09,10,02,38,10.80
2009,09,10,02,39,10.90
2009,09,10,02,40,10.90
2009,09,10,02,41,11.00
2009,09,10,02,42,11.00
2009,09,10,02,43,11.10
2009,09,10,02,44,11.10
2009,09,10,02,45,11.10
2009,09,10,02,46,11.10
2009,09,10,02,47,11.10
2009,09,10,02,48,11.10
2009,09,10,02,49,11.10
2009,09,10,02,50,11.00
2009,09,10,02,51,11.00
2009,09,10,02,52,11.10
2009,09,10,02,53,11.10
2009,09,10,02,54,11.10
2009,09,10,02,55,11.10
2009,09,10,02,56,11.10
2009,09,10,02,57,11.00
2009,09,10,02,58,11.00
2009,09,10,02,59,11.00
2009,09,10,03,00,11.00
2009,09,10,03,01,10.90
2009,09,10,03,02,10.90
2009,09,10,03,03,10.90
2009,09,10,03,04,10.90
2009,09,10,03,05,10.90
2009,09,10,03,06,10.90
2009,09,10,03,07,10.90
2009,09,10,03,08,10.90
2009,09,10,03,09,10.90
2009,09,10,03,10,10.90
2009,09,10,03,11,10.90
2009,09,10,03,12,10.90
2009,09,10,03,13,10.80
2009,09,10,03,14,10.80
2009,09,10,03,15,10.80
2009,09,10,03,16,10.80
2009,09,10,03,17,10.80
2009,09,10,03,18,10.80
2009,09,10,03,19,10.80
2009,09,10,03,20,10.80
2009,09,10,03,21,10.80
2009,09,10,03,22,10.80
2009,09,10,03,23,10.80
2009,09,10,03,24,10.90
2009,09,10,03,25,10.90
2009,09,10,03,26,10.90
2009,09,10,03,27,10.90
2009,09,10,03,28,10.90
2009,09,10,03,29,10.90
2009,09,10,03,30,10.90
2009,09,10,03,31,10.90
2009,09,10,03,32,10.90
2009,09,10,03,33,10.90
2009,09,10,03,34,10.90
2009,09,10,03,35,10.90
2009,09,10,03,36,10.90
2009,09,10,03,37,10.90
2009,09,10,03,38,10.90
2009,09,10,03,39,10.80
2009,09,10,03,40,10.80
2009,09,10,03,41,10.80
2009,09,10,03,42,10.80
2009,09,10,03,43,10.80
2009,09,10,03,44,10.80
2009,09,10,03,45,10.80
2009,09,10,03,46,10.80
2009,09,10,03,47,10.80
2009,09,10,03,48,10.80
2009,09,10,03,49,10.80
2009,09,10,03,50,10.80
2009,09,10,03,51,10.80
2009,09,10,03,52,10.80
2009,09,10,03,53,10.80
2009,09,10,03,54,10.80
2009,09,10,03,55,10.90
2009,09,10,03,56,10.90
2009,09,10,03,57,10.90
2009,09,10,03,58,10.90
2009,09,10,03,59,10.90
2009,09,10,04,00,10.90
2009,09,10,04,01,10.90
2009,09,10,04,02,10.90
2009,09,10,04,03,10.90
2009,09,10,04,04,10.90
2009,09,10,04,05,10.90
2009,09,10,04,06,10.80
2009,09,10,04,07,10.90
2009,09,10,04,08,10.80
2009,09,10,04,09,10.90
2009,09,10,04,10,10.90
2009,09,10,04,11,10.90
2009,09,10,04,12,10.80
2009,09,10,04,13,10.80
2009,09,10,04,14,10.80
2009,09,10,04,15,10.80
2009,09,10,04,16,10.80
2009,09,10,04,17,10.80
2009,09,10,04,18,10.80
2009,09,10,04,19,10.80
2009,09,10,04,20,10.80
2009,09,10,04,21,10.80
2009,09,10,04,22,10.80
2009,09,10,04,23,10.80
2009,09,10,04,24,10.70
2009,09,10,04,25,10.70
2009,09,10,04,26,10.70
2009,09,10,04,27,10.70
2009,09,10,04,28,10.70
2009,09,10,04,29,10.70
2009,09,10,04,30,10.70
2009,09,10,04,31,10.70
2009,09,10,04,32,10.60
2009,09,10,04,33,10.60
2009,09,10,04,34,10.60
2009,09,10,04,35,10.60
2009,09,10,04,36,10.60
2009,09,10,04,37,10.60
2009,09,10,04,38,10.60
2009,09,10,04,39,10.50
2009,09,10,04,40,10.50
2009,09,10,04,41,10.50
2009,09,10,04,42,10.50
2009,09,10,04,43,10.50
2009,09,10,04,44,10.50
2009,09,10,04,45,10.50
2009,09,10,04,46,10.40
2009,09,10,04,47,10.40
2009,09,10,04,48,10.40
2009,09,10,04,49,10.40
2009,09,10,04,50,10.50
2009,09,10,04,51,10.50
2009,09,10,04,52,10.50
2009,09,10,04,53,10.50
2009,09,10,04,54,10.50
2009,09,10,04,55,10.50
2009,09,10,04,56,10.50
2009,09,10,04,57,10.50
2009,09,10,04,58,10.50
2009,09,10,04,59,10.50
2009,09,10,05,00,10.50
2009,09,10,05,01,10.50
2009,09,10,05,02,10.50
2009,09,10,05,03,10.50
2009,09,10,05,04,10.50
2009,09,10,05,05,10.50
2009,09,10,05,06,10.50
2009,09,10,05,07,10.50
2009,09,10,05,08,10.50
2009,09,10,05,09,10.50
2009,09,10,05,10,10.50
2009,09,10,05,11,10.50
2009,09,10,05,12,10.50
2009,09,10,05,13,10.50
2009,09,10,05,14,10.50
2009,09,10,05,15,10.50
2009,09,10,05,16,10.40
2009,09,10,05,17,10.40
2009,09,10,05,18,10.40
2009,09,10,05,19,10.40
2009,09,10,05,20,10.40
2009,09,10,05,21,10.40
2009,09,10,05,22,10.40
2009,09,10,05,23,10.40
2009,09,10,05,24,10.40
2009,09,10,05,25,10.40
2009,09,10,05,26,10.30
2009,09,10,05,27,10.30
2009,09,10,05,28,10.30
2009,09,10,05,29,10.30
2009,09,10,05,30,10.30
2009,09,10,05,31,10.30
2009,09,10,05,32,10.30
2009,09,10,05,33,10.30
2009,09,10,05,34,10.30
2009,09,10,05,35,10.30
2009,09,10,05,36,10.30
2009,09,10,05,37,10.30
2009,09,10,05,38,10.30
2009,09,10,05,39,10.30
2009,09,10,05,40,10.30
2009,09,10,05,41,10.30
2009,09,10,05,42,10.30
2009,09,10,05,43,10.20
2009,09,10,05,44,10.20
2009,09,10,05,45,10.20
2009,09,10,05,46,10.20
2009,09,10,05,47,10.20
2009,09,10,05,48,10.20
2009,09,10,05,49,10.20
2009,09,10,05,50,10.20
2009,09,10,05,51,10.10
2009,09,10,05,52,10.10
2009,09,10,05,53,10.10
2009,09,10,05,54,10.10
2009,09,10,05,55,10.10
2009,09,10,05,56,10.10
2009,09,10,05,57,10.10
2009,09,10,05,58,10.10
2009,09,10,05,59,10.10
2009,09,10,06,00,10.10
2009,09,10,06,01,10.10
2009,09,10,06,02,10.10
2009,09,10,06,03,10.10
2009,09,10,06,04,10.10
2009,09,10,06,05,10.10
2009,09,10,06,06,10.10
2009,09,10,06,07,10.10
2009,09,10,06,08,10.10
2009,09,10,06,09,10.10
2009,09,10,06,10,10.10
2009,09,10,06,11,10.10
2009,09,10,06,12,10.10
2009,09,10,06,13,10.10
2009,09,10,06,14,10.10
2009,09,10,06,15,10.10
2009,09,10,06,16,10.10
2009,09,10,06,17,10.10
2009,09,10,06,18,10.20
2009,09,10,06,19,10.20
2009,09,10,06,20,10.20
2009,09,10,06,21,10.20
2009,09,10,06,22,10.30
2009,09,10,06,23,10.30
2009,09,10,06,24,10.30
2009,09,10,06,25,10.30
2009,09,10,06,26,10.30
2009,09,10,06,27,10.30
2009,09,10,06,28,10.30
2009,09,10,06,29,10.30
2009,09,10,06,30,10.40
2009,09,10,06,31,10.40
2009,09,10,06,32,10.40
2009,09,10,06,33,10.40
2009,09,10,06,34,10.40
2009,09,10,06,35,10.40
2009,09,10,06,36,10.50
2009,09,10,06,37,10.50
2009,09,10,06,38,10.50
2009,09,10,06,39,10.50
2009,09,10,06,40,10.50
2009,09,10,06,41,10.60
2009,09,10,06,42,10.60
2009,09,10,06,43,10.60
2009,09,10,06,44,10.60
2009,09,10,06,45,10.60
2009,09,10,06,46,10.60
2009,09,10,06,47,10.60
2009,09,10,06,48,10.60
2009,09,10,06,49,10.70
2009,09,10,06,50,10.70
2009,09,10,06,51,10.70
2009,09,10,06,52,10.70
2009,09,10,06,53,10.70
2009,09,10,06,54,10.70
2009,09,10,06,55,10.70
2009,09,10,06,56,10.70
2009,09,10,06,57,10.70
2009,09,10,06,58,10.70
2009,09,10,06,59,10.70
2009,09,10,07,00,10.70
2009,09,10,07,01,10.70
2009,09,10,07,02,10.70
2009,09,10,07,03,10.70
2009,09,10,07,04,10.70
2009,09,10,07,05,10.70
2009,09,10,07,06,10.70
2009,09,10,07,07,10.70
2009,09,10,07,08,10.80
2009,09,10,07,09,10.80
2009,09,10,07,10,10.80
2009,09,10,07,11,10.80
2009,09,10,07,12,10.80
2009,09,10,07,13,10.80
2009,09,10,07,14,10.80
2009,09,10,07,15,10.80
2009,09,10,07,16,10.80
2009,09,10,07,17,10.80
2009,09,10,07,18,10.90
2009,09,10,07,19,10.90
2009,09,10,07,20,10.90
2009,09,10,07,21,10.90
2009,09,10,07,22,10.90
2009,09,10,07,23,10.90
2009,09,10,07,24,10.90
2009,09,10,07,25,10.90
2009,09,10,07,26,10.90
2009,09,10,07,27,10.90
2009,09,10,07,28,10.90
2009,09,10,07,29,10.90
2009,09,10,07,30,10.90
2009,09,10,07,31,10.90
2009,09,10,07,32,10.90
2009,09,10,07,33,10.90
2009,09,10,07,34,10.90
2009,09,10,07,35,11.00
2009,09,10,07,36,11.00
2009,09,10,07,37,11.00
2009,09,10,07,38,11.00
2009,09,10,07,39,11.00
2009,09,10,07,40,11.00
2009,09,10,07,41,11.00
2009,09,10,07,42,11.00
2009,09,10,07,43,11.10
2009,09,10,07,44,11.10
2009,09,10,07,45,11.10
2009,09,10,07,46,11.10
2009,09,10,07,47,11.10
2009,09,10,07,48,11.10
2009,09,10,07,49,11.10
2009,09,10,07,50,11.20
2009,09,10,07,51,11.20
2009,09,10,07,52,11.20
2009,09,10,07,53,11.20
2009,09,10,07,54,11.20
2009,09,10,07,55,11.20
2009,09,10,07,56,11.20
2009,09,10,07,57,11.30
2009,09,10,07,58,11.30
2009,09,10,07,59,11.30
2009,09,10,08,00,11.30
2009,09,10,08,01,11.30
2009,09,10,08,02,11.30
2009,09,10,08,03,11.40
2009,09,10,08,04,11.40
2009,09,10,08,05,11.40
2009,09,10,08,06,11.40
2009,09,10,08,07,11.40
2009,09,10,08,08,11.50
2009,09,10,08,09,11.50
2009,09,10,08,10,11.60
2009,09,10,08,11,11.60
2009,09,10,08,12,11.70
2009,09,10,08,13,11.70
2009,09,10,08,14,11.70
2009,09,10,08,15,11.80
2009,09,10,08,16,11.80
2009,09,10,08,17,11.80
2009,09,10,08,18,11.80
2009,09,10,08,19,11.80
2009,09,10,08,20,11.90
2009,09,10,08,21,11.90
2009,09,10,08,22,11.90
2009,09,10,08,23,11.90
2009,09,10,08,24,12.00
2009,09,10,08,25,12.10
2009,09,10,08,26,12.10
2009,09,10,08,27,12.20
2009,09,10,08,28,12.20
2009,09,10,08,29,12.20
2009,09,10,08,30,12.30
2009,09,10,08,31,12.30
2009,09,10,08,32,12.40
2009,09,10,08,33,12.40
2009,09,10,08,34,12.50
2009,09,10,08,35,12.50
2009,09,10,08,36,12.60
2009,09,10,08,37,12.70
2009,09,10,08,38,12.70
2009,09,10,08,39,12.80
2009,09,10,08,40,12.80
2009,09,10,08,41,12.90
2009,09,10,08,42,13.00
2009,09,10,08,43,13.00
2009,09,10,08,44,13.10
2009,09,10,08,45,13.10
2009,09,10,08,46,13.20
2009,09,10,08,47,13.20
2009,09,10,08,48,13.30
2009,09,10,08,49,13.30
2009,09,10,08,50,13.30
2009,09,10,08,51,13.30
2009,09,10,08,52,13.30
2009,09,10,08,53,13.30
2009,09,10,08,54,13.30
2009,09,10,08,55,13.30
2009,09,10,08,56,13.30
2009,09,10,08,57,13.30
2009,09,10,08,58,13.30
2009,09,10,08,59,13.30
2009,09,10,09,00,13.30
2009,09,10,09,01,13.30
2009,09,10,09,02,13.30
2009,09,10,09,03,13.30
2009,09,10,09,04,13.30
2009,09,10,09,05,13.30
2009,09,10,09,06,13.30
2009,09,10,09,07,13.30
2009,09,10,09,08,13.30
2009,09,10,09,09,13.30
2009,09,10,09,10,13.30
2009,09,10,09,11,13.40
2009,09,10,09,12,13.40
2009,09,10,09,13,13.40
2009,09,10,09,14,13.40
2009,09,10,09,15,13.40
2009,09,10,09,16,13.50
2009,09,10,09,17,13.50
2009,09,10,09,18,13.60
2009,09,10,09,19,13.60
2009,09,10,09,20,13.60
2009,09,10,09,21,13.70
2009,09,10,09,22,13.70
2009,09,10,09,23,13.70
2009,09,10,09,24,13.70
2009,09,10,09,25,13.80
2009,09,10,09,26,13.80
2009,09,10,09,27,13.80
2009,09,10,09,28,13.80
2009,09,10,09,29,13.80
2009,09,10,09,30,13.90
2009,09,10,09,31,13.90
2009,09,10,09,32,13.90
2009,09,10,09,33,13.90
2009,09,10,09,34,13.90
2009,09,10,09,35,14.00
2009,09,10,09,36,14.00
2009,09,10,09,37,14.00
2009,09,10,09,38,14.00
2009,09,10,09,39,13.90
2009,09,10,09,40,13.90
2009,09,10,09,41,13.90
2009,09,10,09,42,13.90
2009,09,10,09,43,13.90
2009,09,10,09,44,13.90
2009,09,10,09,45,13.90
2009,09,10,09,46,13.80
2009,09,10,09,47,13.80
2009,09,10,09,48,13.80
2009,09,10,09,49,13.80
2009,09,10,09,50,13.80
2009,09,10,09,51,13.80
2009,09,10,09,52,13.80
2009,09,10,09,53,13.80
2009,09,10,09,54,13.80
2009,09,10,09,55,13.90
2009,09,10,09,56,13.90
2009,09,10,09,57,13.90
2009,09,10,09,58,13.90
2009,09,10,09,59,13.90
2009,09,10,10,00,13.90
2009,09,10,10,01,13.90
2009,09,10,10,02,13.90
2009,09,10,10,03,13.90
2009,09,10,10,04,13.90
2009,09,10,10,05,13.90
2009,09,10,10,06,14.00
2009,09,10,10,07,14.00
2009,09,10,10,08,14.00
2009,09,10,10,09,14.00
2009,09,10,10,10,14.10
2009,09,10,10,11,14.10
2009,09,10,10,12,14.10
2009,09,10,10,13,14.10
2009,09,10,10,14,14.20
2009,09,10,10,15,14.20
2009,09,10,10,16,14.30
2009,09,10,10,17,14.30
2009,09,10,10,18,14.40
2009,09,10,10,19,14.40
2009,09,10,10,20,14.50
2009,09,10,10,21,14.50
2009,09,10,10,22,14.60
2009,09,10,10,23,14.60
2009,09,10,10,24,14.60
2009,09,10,10,25,14.70
2009,09,10,10,26,14.70
2009,09,10,10,27,14.80
2009,09,10,10,28,14.80
2009,09,10,10,29,14.90
2009,09,10,10,30,15.00
2009,09,10,10,31,15.00
2009,09,10,10,32,15.00
2009,09,10,10,33,15.00
2009,09,10,10,34,15.00
2009,09,10,10,35,15.00
2009,09,10,10,36,15.00
2009,09,10,10,37,15.10
2009,09,10,10,38,15.20
2009,09,10,10,39,15.20
2009,09,10,10,40,15.30
2009,09,10,10,41,15.30
2009,09,10,10,42,15.30
2009,09,10,10,43,15.30
2009,09,10,10,44,15.30
2009,09,10,10,45,15.30
2009,09,10,10,46,15.30
2009,09,10,10,47,15.40
2009,09,10,10,48,15.50
2009,09,10,10,49,15.50
2009,09,10,10,50,15.60
2009,09,10,10,51,15.60
2009,09,10,10,52,15.70
2009,09,10,10,53,15.70
2009,09,10,10,54,15.70
2009,09,10,10,55,15.80
2009,09,10,10,56,15.80
2009,09,10,10,57,15.80
2009,09,10,10,58,15.80
2009,09,10,10,59,15.90
2009,09,10,11,00,15.90
2009,09,10,11,01,15.90
2009,09,10,11,02,15.90
2009,09,10,11,03,15.90
2009,09,10,11,04,15.90
2009,09,10,11,05,15.90
2009,09,10,11,06,15.90
2009,09,10,11,07,15.90
2009,09,10,11,08,15.90
2009,09,10,11,09,15.90
2009,09,10,11,10,15.90
2009,09,10,11,11,15.90
2009,09,10,11,12,15.90
2009,09,10,11,13,16.00
2009,09,10,11,14,16.00
2009,09,10,11,15,16.10
2009,09,10,11,16,16.10
2009,09,10,11,17,16.10
2009,09,10,11,18,16.20
2009,09,10,11,19,16.20
2009,09,10,11,20,16.20
2009,09,10,11,21,16.20
2009,09,10,11,22,16.20
2009,09,10,11,23,16.20
2009,09,10,11,24,16.20
2009,09,10,11,25,16.20
2009,09,10,11,26,16.20
2009,09,10,11,27,16.20
2009,09,10,11,28,16.20
2009,09,10,11,29,16.20
2009,09,10,11,30,16.20
2009,09,10,11,31,16.20
2009,09,10,11,32,16.20
2009,09,10,11,33,16.10
2009,09,10,11,34,16.10
2009,09,10,11,35,16.10
2009,09,10,11,36,16.10
2009,09,10,11,37,16.10
2009,09,10,11,38,16.10
2009,09,10,11,39,16.10
2009,09,10,11,40,16.10
2009,09,10,11,41,16.10
2009,09,10,11,42,16.10
2009,09,10,11,43,16.10
2009,09,10,11,44,16.10
2009,09,10,11,45,16.10
2009,09,10,11,46,16.20
2009,09,10,11,47,16.20
2009,09,10,11,48,16.20
2009,09,10,11,49,16.30
2009,09,10,11,50,16.30
2009,09,10,11,51,16.40
2009,09,10,11,52,16.40
2009,09,10,11,53,16.40
2009,09,10,11,54,16.40
2009,09,10,11,55,16.40
2009,09,10,11,56,16.40
2009,09,10,11,57,16.40
2009,09,10,11,58,16.40
2009,09,10,11,59,16.40
2009,09,10,12,00,16.40
2009,09,10,12,01,16.50
2009,09,10,12,02,16.60
2009,09,10,12,03,16.70
2009,09,10,12,04,16.80
2009,09,10,12,05,16.90
2009,09,10,12,06,17.10
2009,09,10,12,07,17.30
2009,09,10,12,08,17.40
2009,09,10,12,09,17.60
2009,09,10,12,10,17.70
2009,09,10,12,11,17.80
2009,09,10,12,12,17.90
2009,09,10,12,13,17.90
2009,09,10,12,14,17.90
2009,09,10,12,15,17.90
2009,09,10,12,16,17.80
2009,09,10,12,17,17.80
2009,09,10,12,18,17.70
2009,09,10,12,19,17.60
2009,09,10,12,20,17.50
2009,09,10,12,21,17.40
2009,09,10,12,22,17.40
2009,09,10,12,23,17.40
2009,09,10,12,24,17.40
2009,09,10,12,25,17.40
2009,09,10,12,26,17.40
2009,09,10,12,27,17.40
2009,09,10,12,28,17.40
2009,09,10,12,29,17.40
2009,09,10,12,30,17.40
2009,09,10,12,31,17.40
2009,09,10,12,32,17.40
2009,09,10,12,33,17.50
2009,09,10,12,34,17.50
2009,09,10,12,35,17.60
2009,09,10,12,36,17.60
2009,09,10,12,37,17.70
2009,09,10,12,38,17.80
2009,09,10,12,39,17.80
2009,09,10,12,40,17.90
2009,09,10,12,41,17.90
2009,09,10,12,42,17.90
2009,09,10,12,43,17.80
2009,09,10,12,44,17.80
2009,09,10,12,45,17.80
2009,09,10,12,46,17.80
2009,09,10,12,47,17.90
2009,09,10,12,48,17.90
2009,09,10,12,49,18.00
2009,09,10,12,50,18.00
2009,09,10,12,51,18.10
2009,09,10,12,52,18.10
2009,09,10,12,53,18.10
2009,09,10,12,54,18.20
2009,09,10,12,55,18.20
2009,09,10,12,56,18.20
2009,09,10,12,57,18.10
2009,09,10,12,58,18.10
2009,09,10,12,59,18.10
2009,09,10,13,00,18.10
2009,09,10,13,01,18.10
2009,09,10,13,02,18.10
2009,09,10,13,03,18.10
2009,09,10,13,04,18.20
2009,09,10,13,05,18.20
2009,09,10,13,06,18.30
2009,09,10,13,07,18.40
2009,09,10,13,08,18.50
2009,09,10,13,09,18.60
2009,09,10,13,10,18.60
2009,09,10,13,11,18.70
2009,09,10,13,12,18.70
2009,09,10,13,13,18.80
2009,09,10,13,14,18.80
2009,09,10,13,15,18.80
2009,09,10,13,16,18.80
2009,09,10,13,17,18.90
2009,09,10,13,18,18.90
2009,09,10,13,19,18.90
2009,09,10,13,20,19.00
2009,09,10,13,21,19.10
2009,09,10,13,22,19.10
2009,09,10,13,23,19.20
2009,09,10,13,24,19.30
2009,09,10,13,25,19.40
2009,09,10,13,26,19.50
2009,09,10,13,27,19.60
2009,09,10,13,28,19.60
2009,09,10,13,29,19.70
2009,09,10,13,30,19.60
2009,09,10,13,31,19.60
2009,09,10,13,32,19.60
2009,09,10,13,33,19.70
2009,09,10,13,34,19.70
2009,09,10,13,35,19.80
2009,09,10,13,36,19.80
2009,09,10,13,37,19.80
2009,09,10,13,38,19.80
2009,09,10,13,39,19.80
2009,09,10,13,40,19.80
2009,09,10,13,41,19.70
2009,09,10,13,42,19.80
2009,09,10,13,43,19.80
2009,09,10,13,44,19.80
2009,09,10,13,45,19.90
2009,09,10,13,46,20.00
2009,09,10,13,47,20.10
2009,09,10,13,48,20.20
2009,09,10,13,49,20.30
2009,09,10,13,50,20.30
2009,09,10,13,51,20.40
2009,09,10,13,52,20.40
2009,09,10,13,53,20.30
2009,09,10,13,54,20.30
2009,09,10,13,55,20.20
2009,09,10,13,56,20.10
2009,09,10,13,57,20.10
2009,09,10,13,58,20.10
2009,09,10,13,59,20.10
2009,09,10,14,00,20.20
2009,09,10,14,01,20.20
2009,09,10,14,02,20.30
2009,09,10,14,03,20.30
2009,09,10,14,04,20.20
2009,09,10,14,05,20.10
2009,09,10,14,06,20.10
2009,09,10,14,07,20.00
2009,09,10,14,08,20.00
2009,09,10,14,09,19.90
2009,09,10,14,10,19.90
2009,09,10,14,11,19.90
2009,09,10,14,12,19.90
2009,09,10,14,13,20.00
2009,09,10,14,14,20.10
2009,09,10,14,15,20.30
2009,09,10,14,16,20.40
2009,09,10,14,17,20.60
2009,09,10,14,18,20.80
2009,09,10,14,19,20.90
2009,09,10,14,20,21.00
2009,09,10,14,21,21.20
2009,09,10,14,22,21.30
2009,09,10,14,23,21.40
2009,09,10,14,24,21.50
2009,09,10,14,25,21.60
2009,09,10,14,26,21.70
2009,09,10,14,27,21.80
2009,09,10,14,28,21.90
2009,09,10,14,29,22.00
2009,09,10,14,30,22.10
2009,09,10,14,31,22.20
2009,09,10,14,32,22.20
2009,09,10,14,33,22.30
2009,09,10,14,34,22.30
2009,09,10,14,35,22.10
2009,09,10,14,36,22.00
2009,09,10,14,37,21.90
2009,09,10,14,38,21.80
2009,09,10,14,39,21.60
2009,09,10,14,40,21.50
2009,09,10,14,41,21.30
2009,09,10,14,42,21.20
2009,09,10,14,43,21.20
2009,09,10,14,44,21.20
2009,09,10,14,45,21.20
2009,09,10,14,46,21.30
2009,09,10,14,47,21.40
2009,09,10,14,48,21.50
2009,09,10,14,49,21.60
2009,09,10,14,50,21.70
2009,09,10,14,51,21.70
2009,09,10,14,52,21.70
2009,09,10,14,53,21.70
2009,09,10,14,54,21.50
2009,09,10,14,55,21.30
2009,09,10,14,56,21.10
2009,09,10,14,57,21.00
2009,09,10,14,58,20.80
2009,09,10,14,59,20.80
2009,09,10,15,00,20.70
2009,09,10,15,01,20.60
2009,09,10,15,02,20.50
2009,09,10,15,03,20.40
2009,09,10,15,04,20.40
2009,09,10,15,05,20.40
2009,09,10,15,06,20.30
2009,09,10,15,07,20.30
2009,09,10,15,08,20.30
2009,09,10,15,09,20.40
2009,09,10,15,10,20.50
2009,09,10,15,11,20.60
2009,09,10,15,12,20.60
2009,09,10,15,13,20.60
2009,09,10,15,14,20.60
2009,09,10,15,15,20.60
2009,09,10,15,16,20.60
2009,09,10,15,17,20.50
2009,09,10,15,18,20.50
2009,09,10,15,19,20.50
2009,09,10,15,20,20.60
2009,09,10,15,21,20.60
2009,09,10,15,22,20.70
2009,09,10,15,23,20.80
2009,09,10,15,24,21.00
2009,09,10,15,25,21.20
2009,09,10,15,26,21.30
2009,09,10,15,27,21.50
2009,09,10,15,28,21.80
2009,09,10,15,29,21.90
2009,09,10,15,30,21.90
2009,09,10,15,31,21.80
2009,09,10,15,32,21.80
2009,09,10,15,33,21.80
2009,09,10,15,34,21.80
2009,09,10,15,35,21.70
2009,09,10,15,36,21.60
2009,09,10,15,37,21.50
2009,09,10,15,38,21.40
2009,09,10,15,39,21.30
2009,09,10,15,40,21.30
2009,09,10,15,41,21.30
2009,09,10,15,42,21.30
2009,09,10,15,43,21.40
2009,09,10,15,44,21.40
2009,09,10,15,45,21.60
2009,09,10,15,46,21.70
2009,09,10,15,47,21.80
2009,09,10,15,48,21.90
2009,09,10,15,49,22.10
2009,09,10,15,50,22.20
2009,09,10,15,51,22.30
2009,09,10,15,52,22.30
2009,09,10,15,53,22.40
2009,09,10,15,54,22.40
2009,09,10,15,55,22.50
2009,09,10,15,56,22.50
2009,09,10,15,57,22.50
2009,09,10,15,58,22.60
2009,09,10,15,59,22.60
2009,09,10,16,00,22.50
2009,09,10,16,01,22.50
2009,09,10,16,02,22.50
2009,09,10,16,03,22.40
2009,09,10,16,04,22.40
2009,09,10,16,05,22.40
2009,09,10,16,06,22.50
2009,09,10,16,07,22.60
2009,09,10,16,08,22.50
2009,09,10,16,09,22.50
2009,09,10,16,10,22.50
2009,09,10,16,11,22.60
2009,09,10,16,12,22.50
2009,09,10,16,13,22.40
2009,09,10,16,14,22.30
2009,09,10,16,15,22.30
2009,09,10,16,16,22.30
2009,09,10,16,17,22.20
2009,09,10,16,18,22.10
2009,09,10,16,19,22.00
2009,09,10,16,20,21.90
2009,09,10,16,21,21.90
2009,09,10,16,22,21.90
2009,09,10,16,23,21.90
2009,09,10,16,24,21.90
2009,09,10,16,25,22.00
2009,09,10,16,26,22.00
2009,09,10,16,27,22.10
2009,09,10,16,28,22.20
2009,09,10,16,29,22.30
2009,09,10,16,30,22.40
2009,09,10,16,31,22.50
2009,09,10,16,32,22.50
2009,09,10,16,33,22.50
2009,09,10,16,34,22.40
2009,09,10,16,35,22.40
2009,09,10,16,36,22.30
2009,09,10,16,37,22.30
2009,09,10,16,38,22.30
2009,09,10,16,39,22.30
2009,09,10,16,40,22.30
2009,09,10,16,41,22.30
2009,09,10,16,42,22.30
2009,09,10,16,43,22.40
2009,09,10,16,44,22.50
2009,09,10,16,45,22.50
2009,09,10,16,46,22.70
2009,09,10,16,47,22.80
2009,09,10,16,48,22.80
2009,09,10,16,49,22.90
2009,09,10,16,50,23.00
2009,09,10,16,51,23.20
2009,09,10,16,52,23.30
2009,09,10,16,53,23.40
2009,09,10,16,54,23.50
2009,09,10,16,55,23.70
2009,09,10,16,56,23.80
2009,09,10,16,57,23.80
2009,09,10,16,58,23.80
2009,09,10,16,59,23.80
2009,09,10,17,00,23.70
2009,09,10,17,01,23.60
2009,09,10,17,02,23.60
2009,09,10,17,03,23.60
2009,09,10,17,04,23.50
2009,09,10,17,05,23.50
2009,09,10,17,06,23.50
2009,09,10,17,07,23.50
2009,09,10,17,08,23.60
2009,09,10,17,09,23.60
2009,09,10,17,10,23.70
2009,09,10,17,11,23.70
2009,09,10,17,12,23.80
2009,09,10,17,13,23.90
2009,09,10,17,14,24.00
2009,09,10,17,15,24.00
2009,09,10,17,16,24.10
2009,09,10,17,17,24.10
2009,09,10,17,18,24.20
2009,09,10,17,19,24.20